Location: Reedsburg
(40.8087°N, 82.1068°W)
Time: 03:17:38
(UTC+00:00)

Daily predictions for brighter satellites

Satellite Brightness Start Highest point End
(mag) Time Altitude Azimuth Time Altitude Azimuth Time Altitude Azimuth
BREEZE-M DEB (TANK) 3.5 01:15:19 10° S 01:17:52 27° ESE 01:23:26 10° ENE
Cosmos 1697 Rocket 3.8 01:17:21 10° N 01:22:18 30° NE 01:27:12 10° ESE
Cosmos 2082 Rocket 3.3 01:23:51 10° SSE 01:28:11 23° E 01:32:33 10° NE
Hubble Space Telescope 2.9 01:28:29 10° S 01:29:52 11° SSE 01:31:13 10° SSE
Cosmos 1833 Rocket 2.8 01:26:17 10° S 01:31:44 53° ESE 01:37:13 10° NNE
IGS 5A 4.3 01:28:19 10° SE 01:32:03 34° ENE 01:35:49 10° N
Cosmos 1953 Rocket 3.6 01:28:06 10° S 01:32:32 68° E 01:37:00 10° NNE
USA 305 2.9 01:29:17 10° NW 01:33:29 79° SW 01:37:38 10° SE
USA 308 2.9 01:29:21 10° NW 01:33:37 87° SW 01:37:46 10° SE
SPOT 3 Rocket 4.4 01:29:18 10° SE 01:33:57 34° ENE 01:38:37 10° N
Cosmos 1892 3.2 01:30:15 10° SSW 01:34:00 62° W 01:37:46 10° N
Cosmos 1689 Rocket 4.0 01:31:53 10° N 01:34:25 32° WNW 01:36:55 10° SW
Cosmos 2150 Rocket 4.2 01:30:51 10° NNW 01:36:16 81° WSW 01:41:42 10° SSE
USA 186 3.6 01:33:49 10° SSW 01:36:48 32° W 01:39:38 10° NNW
Resurs 1-3 3.6 01:34:54 10° SSE 01:39:17 77° ENE 01:43:40 10° N
Cosmos 2298 Rocket 4.4 01:35:22 10° NNW 01:40:41 69° WSW 01:45:57 10° S
Cosmos 1125 Rocket 3.6 01:36:51 10° NNW 01:42:12 86° WSW 01:47:30 10° SSE
Cosmos 2279 Rocket 4.1 01:40:11 10° N 01:46:18 59° E 01:52:23 10° SSE
Cosmos 1869 4.0 01:47:35 10° NNW 01:51:23 54° W 01:55:07 10° S
Landsat 7 4.0 01:49:11 11° SSE 01:53:38 55° ENE 01:58:17 10° N
COSMOS 2406 3.2 01:49:14 10° SSW 01:54:52 76° ESE 02:00:35 10° NNE
Cosmos 2058 2.9 01:50:57 10° S 01:55:04 67° E 01:59:14 10° NNE
Cosmos 1842 Rocket 4.1 01:51:44 10° N 01:56:00 42° ENE 01:59:20 15° SE
Cosmos 1825 2.3 01:52:41 10° SSW 01:56:25 74° W 02:00:10 10° N
Cosmos 2369 4.4 01:51:57 10° N 01:57:15 39° ENE 02:01:22 16° ESE
USA 306 3.5 01:53:22 10° WNW 01:57:30 50° SW 02:00:51 15° SSE
NOSS 3-4 (A) 3.9 01:52:26 10° SW 01:58:10 64° NW 02:04:18 10° NNE
NOSS 3-4 (C) 3.9 01:52:32 10° SW 01:58:16 64° NW 02:04:24 10° NNE
OBJECT-B 3.4 01:58:25 10° SW 02:00:46 19° W 02:03:08 10° NW
ERS-1 Rocket 4.5 02:00:52 13° ESE 02:03:45 21° ENE 02:07:28 10° NNE
Cosmos 1076 Rocket 4.1 02:02:51 15° SSE 02:05:55 37° E 02:09:56 10° NNE
Cosmos 1656 4.0 02:00:38 10° NNW 02:06:14 65° WSW 02:11:34 11° S
ATLAS 2AS CENTAUR R/B 3.0 01:59:01 10° SSW 02:06:55 81° ESE 02:14:44 10° NE
Cosmos 1980 Rocket 3.1 02:03:21 10° N 02:08:30 35° ENE 02:12:06 18° ESE
Cosmos 1437 Rocket 3.8 02:06:00 10° NNW 02:09:39 43° W 02:13:21 10° SSW
Resurs 01 Rocket 1.7 02:08:50 12° S 02:12:52 83° WSW 02:17:20 10° NNW
Nadezhda 4 Rocket 4.1 02:07:55 10° SSE 02:13:47 53° E 02:19:46 10° NNE
Cosmos 1437 2.8 02:14:51 10° NNW 02:17:35 58° W 02:19:12 21° S
RESURS DK-1 2.4 02:18:50 10° S 02:22:54 56° ESE 02:26:59 10° NNE
Cosmos 2098 Rocket 2.2 02:22:42 36° SE 02:23:31 51° E 02:26:33 10° NNE
USA 245 4.2 02:22:59 20° SSE 02:26:53 65° ENE 02:31:44 10° N
USA 267 3.4 02:20:45 10° ENE 02:27:02 47° SE 02:33:16 10° SSW
BREEZE-M DEB (TANK) 4.3 02:24:16 10° NW 02:27:40 51° NNE 02:36:57 12° ESE
ATLAS 3B R/B 3.6 02:21:07 10° NNW 02:27:49 42° NE 02:32:46 19° ESE
CENTAUR R/B 4.3 02:21:30 10° NW 02:29:10 39° WSW 02:37:12 10° S
Cosmos 1633 2.4 02:29:09 23° S 02:31:17 81° E 02:34:55 10° N
SPOT 1/Viking Rocket 3.5 02:28:26 21° SSE 02:31:58 85° ENE 02:37:12 10° NNW
MetOp-B 4.2 02:28:46 18° SSE 02:32:46 84° WSW 02:38:10 10° NNW
ISS -1.0 02:32:32 10° NNW 02:34:39 16° NNE 02:36:47 10° NE
Cosmos 2360 4.2 02:29:45 10° NNW 02:35:28 84° WSW 02:38:55 25° SSE
Cosmos 44 Rocket 3.8 02:31:00 10° SW 02:36:09 66° NW 02:41:22 10° NNE
ARIANE 5 R/B 2.9 02:38:33 32° SE 02:40:19 52° ENE 02:44:41 10° N
Cosmos 1933 4.2 02:36:42 10° NNE 02:40:22 32° ENE 02:41:03 30° E
SL-16 R/B 3.9 02:36:43 10° N 02:40:50 20° NE 02:43:41 14° E
Meteor 2-8 Rocket 4.4 02:36:17 10° N 02:42:28 79° E 02:46:14 25° SSE
SPOT 5 3.0 02:44:08 34° ESE 02:45:27 45° ENE 02:49:35 10° N
JB-3 4.5 02:41:27 10° N 02:45:37 81° WNW 02:48:22 20° SSW
CZ-2C R/B 4.1 02:44:54 10° N 02:49:25 64° WNW 02:53:38 11° SSW
OAO 2 Rocket 4.0 02:48:17 10° WSW 02:52:46 34° SSW 02:53:28 32° S
Cosmos 2221 3.7 02:49:17 10° NNW 02:53:17 39° W 02:56:12 17° SSW
CARTOSAT-1 3.5 02:51:42 39° SSE 02:53:18 88° E 02:57:39 10° NNW
Cosmos 371 Rocket 3.2 02:59:00 10° NNW 03:03:49 72° ENE 03:05:07 47° SE
Cosmos 923 Rocket 4.4 03:03:16 39° ESE 03:03:58 41° ESE 03:08:58 10° NNE
Terra 2.0 03:04:43 43° ESE 03:05:51 55° ENE 03:10:31 10° N
ERBS 2.2 03:02:38 10° NW 03:05:39 75° NNW 03:05:39 75° NNW
Cosmos 1697 Rocket 3.7 03:01:05 10° NW 03:06:21 40° WSW 03:09:29 22° SSW
Cosmos 1606 4.2 03:06:17 10° NNW 03:09:38 31° W 03:11:14 22° SW
Cosmos 2082 Rocket 3.1 03:06:29 10° SW 03:11:54 48° WNW 03:17:22 10° NNE
Cosmos 2278 3.6 03:08:47 10° NNW 03:14:28 86° WSW 03:16:22 44° SSE
Meteor 2-15 4.5 03:08:48 10° NNW 03:14:51 76° W 03:17:43 33° S
Cosmos 1766 Rocket 3.9 03:18:52 48° E 03:18:52 48° E 03:22:59 10° NNE
BREEZE-M R/B 4.1 03:13:57 10° SW 03:23:48 - ENE 03:17:24 28° SSW
Cosmos 1812 4.3 03:16:47 10° NNE 03:19:23 24° ENE 03:19:23 24° ENE
Cosmos 2195 Rocket 4.4 03:16:45 28° S 03:20:09 83° W 03:26:18 10° N
Cosmos 1782 3.0 03:19:27 10° N 03:23:15 58° ENE 03:23:15 58° ENE
Cosmos 2151 3.9 03:23:49 28° SW 03:25:35 45° WNW 03:29:41 10° N
Cosmos 2360 Rocket 3.8 03:26:49 10° N 03:31:09 22° NE 03:33:01 19° E
Cosmos 1092 Rocket 4.3 03:29:20 24° SSW 03:33:11 62° W 03:39:27 10° N
GP-B 3.7 03:29:25 10° N 03:33:43 52° W 03:34:52 40° SW
Cosmos 1328 Rocket 4.0 03:29:56 10° N 03:34:03 47° ENE 03:34:03 47° ENE
Cosmos 2112 Rocket 4.1 03:38:50 54° ESE 03:38:50 54° ESE 03:43:58 10° NNE
Cosmos 332 Rocket 3.6 03:34:15 10° NNW 03:39:10 87° WSW 03:39:38 73° S
Meteor 2-3 Rocket 4.2 03:36:27 27° SW 03:39:27 57° WNW 03:45:03 10° N
Cosmos 1680 Rocket 3.4 03:40:31 65° SE 03:40:52 67° ESE 03:46:07 10° NNE
ERS-1 Rocket 3.7 03:40:52 37° SW 03:42:12 46° W 03:47:02 10° NNW
Cosmos 1809 Rocket 4.3 03:41:14 50° S 03:42:58 83° E 03:49:09 10° N
Cosmos 1151 Rocket 3.0 03:40:32 10° N 03:44:42 80° NNE 03:44:42 80° NNE
Okean 3 Rocket 3.6 03:50:14 79° W 03:50:14 79° W 03:54:44 10° N
Cosmos 1980 Rocket 3.3 03:47:26 10° NW 03:52:24 33° WSW 03:53:52 28° SW
BREEZE-M DEB (TANK) 3.3 03:48:36 10° WNW 03:52:37 80° SSW 03:55:45 41° SE
BREEZE M DEB (TANK) 4.1 03:49:46 10° WSW 03:53:49 86° NNW 04:22:00 10° ENE
H-2A R/B 3.9 03:55:44 10° N 03:59:50 56° WNW 03:59:53 56° WNW
Cosmos 2322 Rocket 2.3 03:54:48 10° NNW 04:00:23 59° ENE 04:00:59 56° E
Cosmos 1271 Rocket 4.1 03:59:50 10° NNW 04:03:10 33° W 04:03:10 33° W
Meteor 2-21 Rocket 4.3 04:08:05 66° S 04:09:02 84° E 04:15:16 10° N
USA 267 3.9 04:03:44 10° NE 04:10:03 54° NW 04:16:23 10° WSW
Meteor 2-6 Rocket 3.9 04:04:57 10° N 04:10:25 88° E 04:10:37 83° SSE
ISS -1.5 04:08:50 10° NW 04:10:35 26° NNW 04:10:35 26° NNW
ATLAS 3B R/B 3.3 04:11:50 10° NW 04:18:36 46° WSW 04:20:00 42° SW
Cosmos 2237 4.3 04:14:23 10° NNW 04:20:05 65° ENE 04:20:24 64° E
Spot 4 4.1 04:22:24 59° NE 04:22:24 59° NE 04:26:41 10° N
Cosmos 1743 Rocket 4.5 04:23:27 43° NE 04:23:27 43° NE 04:26:39 10° NNE
Cosmos 1624 Rocket 4.0 04:17:13 10° NNW 04:22:13 70° NE 04:22:13 70° NE
Meteor 1-27 Rocket 4.1 04:16:59 10° N 04:22:28 51° ENE 04:22:32 51° E
Cosmos 2228 Rocket 4.4 04:19:32 10° N 04:22:34 31° NE 04:22:34 31° NE
Cosmos 1408 Rocket 4.2 04:25:28 54° NW 04:25:28 54° NW 04:29:06 10° N
SL-16 R/B 2.2 04:19:49 10° NNW 04:25:27 66° WSW 04:25:32 66° WSW
Cosmos 2219 Rocket 3.7 04:23:42 10° N 04:28:15 25° NE 04:29:33 23° ENE
Cosmos 1553 Rocket 4.4 04:26:39 10° NNW 04:32:28 49° W 04:33:26 45° WSW
Cosmos 1655 Rocket 4.0 04:32:56 64° SW 04:33:51 76° W 04:40:16 10° N
Cosmos 1420 Rocket 4.2 04:32:13 10° NNW 04:37:14 62° NE 04:37:14 62° NE
Cosmos 2266 Rocket 3.8 04:37:31 72° SW 04:38:04 79° W 04:44:16 10° N
Meteor 1-10 Rocket 4.2 04:33:34 10° NNW 04:39:04 70° W 04:39:04 70° W
USA 234 3.2 04:41:00 62° ESE 04:42:15 84° NE 04:48:50 10° NW
COSMOS 2455 3.5 04:44:29 42° E 04:44:29 42° E 04:49:03 10° NE
Terra 4.0 04:43:36 15° W 04:43:55 15° W 04:46:42 10° NW
COBE Rocket 4.4 04:44:51 53° NW 04:44:51 53° NW 04:48:37 10° NNW
BREEZE-M DEB (TANK) 4.2 04:32:02 10° SW 04:47:20 74° SSE 04:51:49 10° ENE
Cosmos 1452 Rocket 4.3 04:47:12 10° N 04:52:03 43° ENE 04:52:03 43° ENE
ALOS 2 3.5 04:56:16 47° N 04:56:16 47° N 04:59:27 10° N
Cosmos 883 Rocket 4.4 04:51:22 10° N 04:57:34 75° W 04:57:49 74° WSW
Cosmos 2056 Rocket 4.1 04:56:10 10° NNW 05:00:39 48° WNW 05:00:39 48° WNW
Cosmos 972 Rocket 4.2 05:02:20 72° NNE 05:02:20 72° NNE 05:06:59 10° NNE
ATLAS 5 CENTAUR R/B 4.2 05:04:13 10° N 05:08:40 24° NE 05:12:56 13° E
Cosmos 2333 Rocket 2.4 05:04:07 10° NNW 05:09:38 61° ENE 05:09:38 61° ENE
Cosmos 2360 Rocket 2.6 05:10:01 10° NNW 05:14:45 53° WNW 05:14:45 53° WNW
Meteor 1-25 Rocket 4.2 05:17:03 75° NNE 05:17:03 75° NNE 05:22:11 10° N
Nadezhda 2 Rocket 4.4 05:20:58 88° S 05:21:03 90° NW 05:27:27 10° N
Cosmos 2322 3.8 05:19:12 10° NNW 05:24:37 74° NNE 05:24:37 74° NNE
NOSS 3-1 (C) 4.1 05:21:06 10° NNW 05:28:48 78° NE 05:31:18 51° SE
Meteor 1-19 Rocket 4.3 05:26:29 10° N 05:31:45 70° NE 05:31:45 70° NE
Cosmos 2297 Rocket 3.7 05:37:04 26° E 05:37:04 26° E 05:40:44 10° NE
USA 229 DEB 4.3 05:32:54 10° NNW 05:40:12 60° NE 05:43:12 37° ESE
USA 229 4.3 05:33:00 10° NNW 05:40:18 59° NE 05:43:21 37° ESE
Cosmos 1244 Rocket 4.5 05:40:47 69° W 05:40:50 69° W 05:47:00 10° N
Cosmos 2237 Rocket 3.8 05:37:48 10° N 05:42:42 29° NE 05:44:36 24° E
Cosmos 2322 Rocket 4.1 05:40:07 10° WNW 05:42:47 18° W 05:42:47 18° W
Cosmos 2227 Rocket 3.8 05:47:43 24° E 05:47:43 24° E 05:51:23 10° NE
PSLV R/B 4.4 05:44:30 10° NNE 05:48:12 54° NNE 05:48:12 54° NNE
Cosmos 2285 Rocket 4.2 05:52:27 10° NNW 05:58:13 56° W 05:58:13 56° W
Meteor 2-4 Rocket 3.8 05:54:17 10° N 06:00:14 73° E 06:00:14 73° E
NOSS 3-1 (A) 4.2 05:52:59 10° NNW 06:00:41 77° NE 06:04:02 42° SE
CZ-2D R/B 3.9 05:57:03 10° NE 06:01:00 20° E 06:01:02 20° E
COSMOS 2428 2.9 06:01:28 10° NNW 06:06:19 60° WNW 06:06:19 60° WNW
Cosmos 2219 Rocket 2.9 06:07:04 10° NW 06:11:15 42° WNW 06:11:15 42° WNW
Meteor 1-5 Rocket 4.2 06:13:34 82° N 06:13:34 82° N 06:19:05 10° N
Cosmos 1933 Rocket 4.5 06:16:00 47° NNE 06:16:00 47° NNE 06:19:15 10° N
Thor Agena Rocket 4.3 06:10:54 10° N 06:15:18 42° WNW 06:15:18 42° WNW
Helios 1A 4.3 06:17:20 35° NE 06:17:20 35° NE 06:20:39 10° N
APEX 4.2 06:20:03 75° NW 06:20:03 75° NW 06:26:06 10° NNE
Okean 1-7 4.2 06:17:51 10° N 06:20:56 40° NNE 06:20:56 40° NNE
Meteor 2-17 Rocket 4.3 06:23:27 80° WSW 06:23:35 81° W 06:29:39 10° N
Cosmos 1302 Rocket 4.2 06:18:37 10° NNW 06:23:41 64° ENE 06:23:41 64° ENE
COSMOS 2455 4.2 06:27:36 26° W 06:29:26 31° NW 06:34:44 10° NNE
Cosmos 909 Rocket 4.2 06:32:17 60° SE 06:32:51 63° ESE 06:40:01 10° NE
Cosmos 2219 3.2 06:34:37 70° ESE 06:34:37 70° ESE 06:40:18 10° NNE
Cosmos 1709 Rocket 3.8 06:37:29 76° SSW 06:38:00 84° W 06:44:24 10° N
NOSS 0 Rocket 3.8 06:32:25 10° NNW 06:38:37 72° WSW 06:38:37 72° WSW
Helios 1B rocket 4.4 06:36:02 10° NE 06:38:41 21° E 06:38:41 21° E
Cosmos 1066 Rocket 4.5 06:35:04 10° N 06:40:54 64° ENE 06:41:47 57° ESE
Timation 2 Rocket 3.9 06:46:12 60° SE 06:46:35 61° ESE 06:52:33 10° NNE
MOZ.5/SAFIR/RUBIN 5/SL-8 3.9 06:47:17 72° N 06:47:17 72° N 06:51:34 10° N
Cosmos 2084 Rocket 4.4 06:48:10 10° NNW 06:52:15 45° NE 06:52:38 44° ENE
Cosmos 2333 Rocket 4.1 06:49:42 10° WNW 06:51:37 16° WNW 06:51:37 16° WNW
ATLAS 5 CENTAUR R/B 2.3 06:47:59 10° NW 06:53:48 76° WSW 06:54:21 71° SSW
Cosmos 2082 4.2 06:54:29 45° ESE 06:55:00 46° ESE 07:00:27 10° NE
Cosmos 2251 Rocket 4.2 06:56:04 42° ESE 06:56:23 42° ESE 07:01:22 10° NNE
Cosmos 1703 Rocket 4.5 06:52:19 10° NNW 06:55:22 41° NW 06:55:22 41° NW
Meteor 1-11 Rocket 3.5 06:56:39 76° WSW 06:56:51 77° W 07:02:24 10° N
Cosmos 1536 3.8 06:58:20 44° N 06:58:20 44° N 07:01:11 10° N
Lacrosse 5 1.8 06:57:57 77° ENE 06:57:57 77° ENE 07:02:42 10° NE
Cosmos 2184 Rocket 4.4 06:59:24 42° SE 07:01:03 54° E 07:07:08 10° NNE
SL-16 R/B 2.7 07:00:09 42° SE 07:02:16 68° ENE 07:08:24 10° N
Cosmos 1980 3.7 06:57:08 10° NNW 07:02:27 63° W 07:02:27 63° W
Resurs 1-4 Rocket 2.0 06:57:43 10° NNE 07:03:03 76° ESE 07:03:26 72° SE
Cosmos 1733 Rocket 3.8 07:13:20 44° ESE 07:13:36 44° E 07:17:51 10° NNE
Cosmos 2297 Rocket 2.8 07:18:52 39° W 07:19:50 42° WNW 07:25:14 10° N
AQUA 3.8 07:16:36 10° NNE 07:21:22 70° ESE 07:21:46 66° SE
NPP 3.5 07:17:49 10° NNE 07:23:15 89° ESE 07:24:07 64° SSW
Cosmos 2074 Rocket 3.9 07:23:14 52° S 07:24:54 86° E 07:31:09 10° N
Cosmos 2237 Rocket 2.7 07:21:33 10° NW 07:26:22 41° W 07:26:22 41° W
ASTEX 1 4.1 07:29:44 37° WNW 07:29:44 37° WNW 07:33:51 10° NNW
Cosmos 2227 Rocket 2.7 07:29:32 41° W 07:30:37 46° WNW 07:36:04 10° NNE
ADEOS Rocket 2.7 07:29:11 43° SSE 07:31:10 84° ENE 07:36:41 10° NNW
Cosmos 1743 3.8 07:39:45 34° NW 07:39:45 34° NW 07:42:37 10° N
CZ-2D R/B 2.5 07:36:06 10° N 07:41:18 51° WNW 07:42:22 45° WSW
Cosmos 192 4.4 07:36:48 10° NNW 07:41:45 76° ENE 07:43:44 36° SSE
Cosmos 2181 Rocket 4.4 07:36:11 10° NNW 07:42:10 45° W 07:43:19 41° WSW
Meteor 1-28 Rocket 4.1 07:41:29 36° ESE 07:42:27 45° ENE 07:46:01 10° N
ADEOS II 2.0 07:37:59 10° NNE 07:43:17 81° ESE 07:44:44 49° S
Meteor 2-9 Rocket 4.1 07:43:10 47° S 07:44:45 77° E 07:50:05 10° NNE
IRS-1D 3.7 07:42:08 10° NNE 07:47:05 64° ESE 07:48:42 41° SSE
SL-16 R/B 2.1 07:45:15 10° NNW 07:50:56 80° WSW 07:53:47 31° SSE
Cosmos 614 Rocket 4.0 07:50:06 52° SW 07:51:15 69° WNW 07:56:28 10° NNE
Iridium 4 Rocket 3.8 07:47:10 10° N 07:52:43 76° E 07:55:47 29° SSE
MINOTAUR 4 R/B 4.0 07:55:21 75° ESE 07:55:33 80° ENE 07:59:07 10° N
Cosmos 2263 Rocket 2.7 07:54:29 31° SSE 07:56:55 53° ESE 08:02:27 10° NNE
Cosmos 1975 2.7 07:57:17 67° SSW 07:57:48 88° W 08:01:55 10° N
ATLAS CENTAUR R/B 2.8 07:57:40 21° SE 07:58:25 23° ESE 08:01:30 10° ENE
Cosmos 2221 Rocket 3.7 07:56:24 10° NNW 08:00:52 55° W 08:01:25 51° WSW
Landsat 4 3.6 07:58:03 10° NNE 08:01:46 80° ESE 08:02:13 66° S
CZ-4C R/B 3.7 07:54:43 10° NNW 08:01:56 57° NE 08:10:13 10° SE
Cosmos 407 Rocket 3.6 08:01:06 38° S 08:03:10 73° ESE 08:08:27 10° NNE
Cosmos 1461 3.0 08:05:09 50° SSW 08:06:20 81° ESE 08:10:50 10° NE
Cosmos 1610 Rocket 4.5 08:04:43 35° SSW 08:07:29 70° W 08:13:51 10° N
Cosmos 1707 3.3 08:04:16 10° N 08:08:02 53° E 08:10:01 25° SSE
Cosmos 2344 3.6 08:04:50 30° SSW 08:08:54 74° ESE 08:16:29 10° NE
Meteor 1-29 3.1 08:07:35 10° N 08:10:46 55° WNW 08:10:46 55° WNW
Cosmos 2341 Rocket 4.3 08:06:43 20° S 08:11:04 66° E 08:17:13 10° NNE
Helios 1B rocket 3.5 08:10:55 10° N 08:14:27 29° WNW 08:14:58 28° W
Cosmos 1674 Rocket 3.5 08:12:43 10° NNW 08:17:07 66° W 08:18:38 39° SSW
Cosmos 1238 Rocket 2.4 08:18:43 54° WNW 08:18:43 54° WNW 08:21:53 10° N
Cosmos 1842 3.8 08:18:40 10° NNW 08:22:15 37° W 08:22:21 37° W
Nadezhda 3 Rocket 4.1 08:16:26 10° NNW 08:22:42 61° W 08:26:34 24° SSW
Cosmos 1943 4.0 08:24:52 10° NNW 08:30:28 53° ENE 08:36:01 10° SE
BREEZE-M DEB (TANK) 2.6 08:30:27 50° W 08:30:58 69° NNW 08:33:13 10° NE
IRS-P3 4.3 08:26:58 10° NNE 08:32:19 74° ESE 08:36:16 18° S
IDEFIX/ARIANE 42P 2.6 08:28:29 10° N 08:33:36 63° WNW 08:36:25 27° SW
CBERS-1 4.1 08:28:39 10° N 08:33:43 60° WNW 08:36:24 27° SW
Cosmos 1975 Rocket 4.2 08:31:08 10° N 08:35:21 44° ENE 08:39:31 10° SSE
ATLAS 5 CENTAUR R/B 4.4 08:35:16 10° W 08:35:47 11° W 08:35:47 11° W
Cosmos 1378 Rocket 3.9 08:34:04 10° NNW 08:38:13 43° W 08:39:54 29° SW
CZ-2C R/B 3.8 08:34:15 10° NNE 08:38:21 32° E 08:42:28 10° SSE
Cosmos 1340 3.5 08:36:34 10° N 08:40:13 49° ENE 08:43:51 10° SSE
Lacrosse 5 3.7 08:37:08 10° W 08:41:08 24° NNW 08:45:13 10° NNE
Resurs 1-4 Rocket 4.1 08:39:19 10° NNW 08:42:12 15° WNW 08:44:30 12° W
USA 215 3.6 08:36:40 10° NE 08:43:05 56° SE 08:47:58 18° SSW
Cosmos 1400 Rocket 3.9 08:40:33 11° SSE 08:44:04 41° E 08:47:45 10° NNE
Cosmos 1908 Rocket 3.8 08:42:21 28° SW 08:44:17 49° W 08:48:30 10° N
Cosmos 1626 3.8 08:41:06 10° NNE 08:44:28 33° ENE 08:47:48 10° SE
Cosmos 1356 Rocket 4.1 08:44:46 27° WSW 08:46:11 36° WNW 08:49:55 10° N
SL-16 R/B 3.9 08:45:15 17° WSW 08:46:21 18° W 08:50:27 10° NW
Meteor 1-12 Rocket 4.4 08:45:08 11° S 08:50:29 76° E 08:56:12 10° NNE
Cosmos 1674 2.8 08:46:48 10° N 08:50:39 75° E 08:54:27 10° SSE
BREEZE-M DEB (TANK) 4.0 08:45:45 14° WSW 08:54:38 59° NNW 08:57:56 10° NE
Cosmos 1190 Rocket 4.3 08:51:32 22° SW 08:54:50 53° WNW 09:00:03 10° N
SL-8 R/B 4.0 08:53:11 18° W 08:56:41 61° NNW 09:01:27 10° ENE
Cosmos 1140 Rocket 4.2 08:54:55 20° WSW 08:58:03 40° WNW 09:02:59 10° N
MSX 4.2 09:00:10 10° N 09:05:38 48° WNW 09:10:10 15° SW
CZ-4B R/B 3.3 09:01:19 10° NNE 09:06:12 80° WNW 09:10:43 11° SSW
ASTRO E2 4.2 09:05:37 17° SSW 09:07:03 20° S 09:10:02 10° SE
CZ-4C R/B 4.0 09:04:26 15° SSW 09:07:19 37° W 09:11:15 10° NNW
ERS-1 4.5 09:03:00 10° N 09:07:58 66° WNW 09:12:27 12° SSW
Cosmos 1954 Rocket 4.1 09:04:41 16° SSW 09:08:58 65° WNW 09:14:16 10° NNE
Cosmos 44 3.3 09:03:59 10° NW 09:09:10 71° WSW 09:14:01 10° SSE
Cosmos 1025 Rocket 3.7 09:05:07 10° N 09:09:23 58° E 09:13:39 10° SSE
BREEZE-M DEB (TANK) 3.0 09:07:12 10° WNW 09:10:13 55° NNE 09:13:25 10° E
Cosmos 1844 Rocket 3.7 09:05:18 10° S 09:10:35 44° ESE 09:15:57 10° NE
ARIANE 5 R/B 2.7 09:05:45 10° N 09:10:51 62° WNW 09:15:41 12° SSW
FENGYUN 3A 4.2 09:12:34 10° NNE 09:17:56 60° E 09:23:16 10° S
Cosmos 1603 3.7 09:12:26 10° NNW 09:17:58 62° WSW 09:23:32 10° S
CZ-2D R/B 3.5 09:14:40 10° N 09:18:37 61° WNW 09:22:36 10° SSW
Milstar 3 4.0 09:15:44 12° SW 09:20:29 23° SSE 09:25:50 10° ESE
ADEOS II 4.1 09:19:42 10° NNW 09:22:15 14° WNW 09:24:48 10° W
Spot 4 Rocket 4.0 09:18:00 10° NNE 09:23:11 81° WNW 09:28:20 10° SSW
Okean 2 Rocket 3.4 09:19:11 10° S 09:23:40 73° E 09:28:12 10° NNE
CZ-2C R/B 2.9 09:21:41 10° NNE 09:25:24 73° ESE 09:29:09 10° S
Cosmos 1782 Rocket 4.5 09:23:30 13° SW 09:26:53 31° WNW 09:30:48 10° NNW
Sich 1 Rocket 3.6 09:25:22 10° SSW 09:29:43 67° W 09:34:07 10° N
Cosmos 1805 3.7 09:26:38 10° SSW 09:30:21 44° W 09:34:07 10° N
MOS 1 Rocket 4.0 09:27:11 10° SSE 09:32:10 69° ENE 09:37:27 10° N
Cosmos 2366 rocket 4.5 09:27:16 10° SSW 09:33:18 45° WNW 09:39:23 10° N
ATLAS CENTAUR R/B 2.5 09:33:50 10° WSW 09:37:07 28° NW 09:40:36 10° NNE
CZ-3 R/B 4.3 09:15:06 11° SW 09:37:12 32° S 09:45:14 10° ESE
ATLAS 2AS CENTAUR R/B 4.5 09:33:51 10° NNW 09:40:35 38° NE 09:46:49 10° ESE
Cosmos 1346 Rocket 3.0 09:37:03 10° N 09:40:58 74° E 09:44:51 10° SSE
Cosmos 2263 Rocket 3.6 09:36:39 10° WSW 09:41:10 24° NW 09:45:44 10° N
Cosmos 2151 Rocket 3.6 09:38:13 10° S 09:42:36 89° W 09:47:02 10° N
PAYLOAD A 4.4 09:39:06 10° N 09:44:22 53° WNW 09:49:31 10° SSW
Cosmos 1726 3.0 09:41:01 10° S 09:44:33 52° E 09:48:07 10° NNE
SL-14 R/B 3.2 09:40:41 10° NNW 09:44:33 68° W 09:48:26 10° S
ALOS 2.3 09:44:28 10° N 09:49:08 74° WNW 09:53:46 10° SSW
GEOS 3 Rocket 4.1 09:45:21 10° S 09:50:22 41° WSW 09:55:25 10° NW
CZ-4C R/B 3.6 09:43:33 10° NW 09:50:32 38° WSW 09:58:12 10° S
Meteor 1-22 Rocket 4.3 09:45:48 10° S 09:51:37 88° W 09:57:14 10° N
